Corpus Christi, Texas Weather Center

Moon Phase Calendar



Online Cameras

 


      

Current Conditions in Ingleside
7/25/2021 11:28:35 AM

89°F
Feels Like 101
Clear
Humidity
69%
Pressure
30.03"
Wind
10.4 mph (S)
Dew Point
77°F
UV Index
7/10 (High)
Visibility
6 mi

Hourly Forecast

Date & Time Sun, Jul 25
11:00 AM
Sun, Jul 25
12:00 PM
Sun, Jul 25
1:00 PM
Sun, Jul 25
2:00 PM
Sun, Jul 25
3:00 PM
Sun, Jul 25
4:00 PM
Sun, Jul 25
5:00 PM
Sun, Jul 25
6:00 PM
Sun, Jul 25
7:00 PM
Sun, Jul 25
8:00 PM
Sun, Jul 25
9:00 PM
Sun, Jul 25
10:00 PM
Sun, Jul 25
11:00 PM
Mon, Jul 26
12:00 AM
Mon, Jul 26
1:00 AM
Mon, Jul 26
2:00 AM
Mon, Jul 26
3:00 AM
Mon, Jul 26
4:00 AM
Mon, Jul 26
5:00 AM
Mon, Jul 26
6:00 AM
Mon, Jul 26
7:00 AM
Mon, Jul 26
8:00 AM
Mon, Jul 26
9:00 AM
Mon, Jul 26
10:00 AM
Mon, Jul 26
11:00 AM
Mon, Jul 26
12:00 PM
Mon, Jul 26
1:00 PM
Mon, Jul 26
2:00 PM
Mon, Jul 26
3:00 PM
Mon, Jul 26
4:00 PM
Mon, Jul 26
5:00 PM
Mon, Jul 26
6:00 PM
Mon, Jul 26
7:00 PM
Mon, Jul 26
8:00 PM
Mon, Jul 26
9:00 PM
Mon, Jul 26
10:00 PM
Mon, Jul 26
11:00 PM
Tue, Jul 27
12:00 AM
Tue, Jul 27
1:00 AM
Tue, Jul 27
2:00 AM
Tue, Jul 27
3:00 AM
Tue, Jul 27
4:00 AM
Tue, Jul 27
5:00 AM
Tue, Jul 27
6:00 AM
Tue, Jul 27
7:00 AM
Tue, Jul 27
8:00 AM
Tue, Jul 27
9:00 AM
Tue, Jul 27
10:00 AM
Condition
Clear

Clear

Clear

Clear

Clear

Clear

Clear

Clear

Clear

Clear

Clear

Clear

Clear

Clear

Clear

Clear

Clear

Clouds

Clouds

Clouds

Clouds

Clouds

Clouds

Clouds

Clouds

Clouds

Clouds

Clouds

Clouds

Clouds

Clouds

Clouds

Clouds

Clear

Clear

Clear

Clouds

Clouds

Clouds

Clouds

Clouds

Clouds

Clouds

Clouds

Clouds

Clouds

Clouds

Clouds
Temperature 89°F88°F87°F86°F86°F85°F85°F85°F84°F84°F83°F83°F83°F82°F82°F82°F82°F81°F81°F81°F80°F81°F82°F83°F84°F85°F85°F86°F86°F86°F86°F86°F85°F84°F84°F84°F83°F83°F83°F83°F83°F82°F82°F82°F82°F82°F83°F84°F
Feels Like 101°F100°F97°F96°F94°F92°F92°F91°F91°F91°F90°F90°F90°F89°F89°F88°F88°F87°F86°F86°F85°F87°F88°F89°F90°F91°F91°F91°F91°F91°F91°F92°F92°F91°F91°F90°F90°F90°F90°F90°F89°F89°F89°F88°F88°F89°F90°F91°F
Cloudiness 1%2%2%0%0%0%0%0%0%0%0%0%1%5%5%1%3%24%43%54%59%59%36%26%21%17%17%98%99%94%91%74%63%8%6%6%17%32%44%100%100%100%100%95%83%99%98%92%
Visibility 6 mi6 mi6 mi6 mi6 mi6 mi6 mi6 mi6 mi6 mi6 mi6 mi6 mi6 mi6 mi6 mi6 mi6 mi6 mi6 mi6 mi6 mi6 mi6 mi6 mi6 mi6 mi6 mi6 mi6 mi6 mi6 mi6 mi6 mi6 mi6 mi6 mi6 mi6 mi6 mi6 mi6 mi6 mi6 mi6 mi6 mi6 mi6 mi
Precipitation 0%0%0%0%0%0%0%0%0%0%0%0%0%0%0%0%0%0%0%0%0%0%0%0%0%0%0%0%0%0%0%0%0%0%0%0%0%0%0%0%0%0%0%0%0%0%0%0%
Humidity 69%70%69%69%68%68%68%68%70%74%75%77%78%79%79%79%79%80%80%80%81%79%75%70%66%65%63%61%60%60%61%63%66%70%72%73%74%75%76%76%77%77%78%78%79%77%75%72%
Dew Point 77°F77°F76°F75°F74°F73°F73°F73°F73°F74°F74°F75°F75°F75°F75°F75°F74°F74°F74°F74°F74°F74°F73°F73°F72°F72°F71°F70°F70°F71°F71°F71°F72°F74°F74°F74°F74°F74°F74°F74°F74°F75°F75°F75°F75°F75°F74°F74°F
Pressure 30.03"30.03"30.03"30"29.97"29.94"29.94"29.91"29.91"29.91"29.91"29.91"29.94"29.94"29.94"29.94"29.94"29.91"29.91"29.91"29.91"29.94"29.97"29.97"29.97"29.97"29.94"29.94"29.91"29.91"29.91"29.91"29.91"29.91"29.91"29.94"29.94"29.94"29.94"29.91"29.91"29.91"29.91"29.91"29.94"29.97"29.97"29.97"
Wind Speed 10.1 mph11 mph11.6 mph12.4 mph13.3 mph12.6 mph12.3 mph11.9 mph12.5 mph12.5 mph12.6 mph13.6 mph13.1 mph12.7 mph12 mph11.1 mph10.4 mph9.6 mph8.5 mph7.6 mph6.4 mph5.5 mph4.2 mph3.9 mph4.9 mph7.5 mph9.6 mph10.7 mph10.8 mph10.9 mph11 mph10.8 mph11.7 mph11.7 mph11.5 mph11 mph10.8 mph10.3 mph9.5 mph8 mph8 mph8.3 mph7.5 mph7.5 mph6.5 mph5.5 mph4.2 mph4.6 mph
Wind
Direction
154°
SSE
145°
SE
142°
SE
139°
SE
138°
SE
142°
SE
140°
SE
139°
SE
136°
SE
136°
SE
141°
SE
146°
SE
151°
SSE
162°
SSE
169°
S
171°
S
183°
S
192°
SSW
195°
SSW
198°
SSW
196°
SSW
197°
SSW
193°
SSW
176°
S
137°
SE
121°
ESE
122°
ESE
124°
SE
124°
SE
124°
SE
124°
SE
124°
SE
125°
SE
129°
SE
130°
SE
136°
SE
144°
SE
155°
SSE
163°
SSE
165°
SSE
165°
SSE
161°
SSE
164°
SSE
164°
SSE
167°
SSE
167°
SSE
155°
SSE
130°
SE

Daily Forecast

Date High Low Precip. Humidity
Today
Jul 25

Clear
89 °F
80 °F
0%
69%
Monday
Jul 26

Clouds
86 °F
80 °F
0%
63%
Tuesday
Jul 27

Clouds
86 °F
82 °F
0%
67%
Wednesday
Jul 28

Rain
86 °F
82 °F
48%
69%
Thursday
Jul 29

Rain
86 °F
82 °F
28%
69%
Friday
Jul 30

Clear
86 °F
81 °F
0%
69%
Saturday
Jul 31

Clear
86 °F
82 °F
0%
70%
Sunday
Aug 1

Clouds
87 °F
82 °F
0%
69%
Monday
Aug 2

Clear
86 °F
83 °F
0%
73%
Tuesday
Aug 3

Clouds
87 °F
83 °F
0%
71%
Wednesday
Aug 4

Clouds
86 °F
83 °F
0%
70%
Thursday
Aug 5

Clouds
86 °F
82 °F
0%
71%
Friday
Aug 6

Clouds
86 °F
82 °F
0%
68%
Saturday
Aug 7

Clouds
86 °F
82 °F
0%
67%
Sunday
Aug 8

Clouds
87 °F
82 °F
0%
71%
Monday
Aug 9

Clouds
86 °F
83 °F
0%
73%

Temperature 8-14 Day Outlook



Precipitation 8-14 Day Outlook




Quick Links
Corpus Christi, Texas News
Corpus Christi, Texas Photos
Corpus Christi, Texas Videos




About Us
Contact Us
Site Map
Search Site
Advertise With Us
   
CorpusChristi.USGulf.info
THE CORPUS CHRISTI, TEXAS WEBSITE

Copyright 2021, Coastal Town
Privacy    |    Legal